Regional Weather Roundup
Issued by NWS

Home | Current Version | Previous Version | Graphics & Text | Print | Product List | Glossary On
Versions: 1 2 3 4 5 6 7 8 9 10 11 12 13 14 15 16 17 18 19 20 21 22 23 24 25 26 27 28 29 30 31 32 33 34 35 36 37 38 39 40 41 42 43 44 45 46 47 48 49 50
000
ASUS43 KMKX 251221
RWRWI

WISCONSIN REGIONAL WEATHER ROUNDUP
NATIONAL WEATHER SERVICE MILWAUKEE/SULLIVAN WI
600 AM CST SAT FEB 25 2017

NOTE: "FAIR" INDICATES FEW OR NO CLOUDS BELOW 12,000 FEET WITH NO
SIGNIFICANT WEATHER AND/OR OBSTRUCTIONS TO VISIBILITY.

WIZ001-002-006>008-014>016-023>028-251300-
NORTHWEST WISCONSIN

CITY           SKY/WX    TMP DP  RH WIND       PRES   REMARKS
SUPERIOR ARPT  PTCLDY     9   3  77 NW9       29.87F WCI  -4
6HR MIN TEMP:   9; 6HR MAX TEMP:  17;

ASHLAND        CLOUDY    14   7  73 NW12      29.78R WCI   0
6HR MIN TEMP:  14; 6HR MAX TEMP:  19;

HAYWARD        CLOUDY    12   3  67 VRB7G20   29.78R WCI   1
6HR MIN TEMP:  12; 6HR MAX TEMP:  18;

SIREN          CLEAR     11   3  68 NW9G17    29.86R WCI  -1
6HR MIN TEMP:  11; 6HR MAX TEMP:  17;

CUMBERLAND     PTCLDY    12   3  67 NW15G23   29.81R WCI  -4
RICE LAKE      PTCLDY    12   4  69 NW10G22   29.83R WCI  -1
6HR MIN TEMP:  12; 6HR MAX TEMP:  19;

CHETEK         MOCLDY    11   4  71 NW8       29.81R WCI   0
6HR MIN TEMP:  11; 6HR MAX TEMP:  18;

LADYSMITH      CLOUDY    13   6  72 NW14G26   29.76S WCI  -2
6HR MIN TEMP:  13; 6HR MAX TEMP:  18;

EAU CLAIRE     CLEAR     12   3  67 NW12      29.82R WCI  -2
6HR MIN TEMP:  12; 6HR MAX TEMP:  19; 6HR PCP: TRACE;

MENOMONIE      CLEAR     13   4  66 W15       29.84R WCI  -3
6HR MIN TEMP:  13; 6HR MAX TEMP:  20;

NEW RICHMOND   CLEAR     13   4  66 NW13G20   29.87R WCI  -1
6HR MIN TEMP:  13; 6HR MAX TEMP:  19;

OSCEOLA        CLEAR     14   5  67 NW9G21    29.92R WCI   2
6HR MIN TEMP:  14; 6HR MAX TEMP:  20;

$$

WIZ003>005-009-010-017-018-251300-
NORTH CENTRAL WISCONSIN

CITY           SKY/WX    TMP DP  RH WIND       PRES   REMARKS
MANITOWISH WTR LGT SNOW  13  10  88 NW14      29.63R WCI  -3
6HR MIN TEMP:  13; 6HR MAX TEMP:  15;

ARBOR VITAE    LGT SNOW  16  11  82 NW14G21     N/A  WCI   1
6HR MIN TEMP:  15; 6HR MAX TEMP:  17;

WOODRUFF       LGT SNOW  16  11  82 NW14G21     N/A  WCI   1
6HR MIN TEMP:  15; 6HR MAX TEMP:  17;

RHINELANDER    MIX PCPN  15   8  73 NW15G28   29.61R WCI   0
6HR MIN TEMP:  15; 6HR MAX TEMP:  17; 6HR PCP: TRACE;

EAGLE RIVER    LGT SNOW  14   9  80 NW14      29.59R WCI   0
6HR MIN TEMP:  14; 6HR MAX TEMP:  16;

LAND O LAKES   LGT SNOW  14  10  84 NW12G20   29.59S WCI   1
6HR MIN TEMP:  14; 6HR MAX TEMP:  17;

PHILLIPS       LGT SNOW  11   6  81 NW6       29.69R WCI   1
6HR MIN TEMP:  11; 6HR MAX TEMP:  15;

TOMAHAWK       LGT SNOW  13   8  81 NW9G16    29.66R WCI   0
6HR MIN TEMP:  13; 6HR MAX TEMP:  16;

MEDFORD        LGT SNOW  11   4  73 NW21G30   29.68R WCI  -7
6HR MIN TEMP:  11; 6HR MAX TEMP:  15;

MERRILL        NOT AVBL
$$

WIZ029-030-035-036-043>047-251300-
CENTRAL WISCONSIN

CITY           SKY/WX    TMP DP  RH WIND       PRES   REMARKS
WAUSAU         CLOUDY    15   8  73 NW13      29.66R WCI   1
6HR MIN TEMP:  15; 6HR MAX TEMP:  18; 6HR PCP: TRACE;

MOSINEE        LGT SNOW  16  12  86 NW18      29.68R WCI  -1
MARSHFIELD     LGT SNOW  13   5  70 NW22G30   29.69R WCI  -6
6HR MIN TEMP:  13; 6HR MAX TEMP:  17; 6HR PCP: TRACE;

STEVENS POINT  LGT SNOW  14  10  85 W7        29.69R WCI   4
6HR MIN TEMP:  14; 6HR MAX TEMP:  17;

WAUPACA        LGT SNOW  19  15  82 W12       29.68R WCI   7
6HR MIN TEMP:  19; 6HR MAX TEMP:  22;

WAUTOMA        LGT SNOW  16  13  88 W14       29.71R FOG     WCI   2
6HR MIN TEMP:  16; 6HR MAX TEMP:  20; 6HR PCP: TRACE;

WISC RAPIDS    CLOUDY    16   7  67 NW18G26   29.73R WCI   0
6HR MIN TEMP:  16; 6HR MAX TEMP:  19; 6HR PCP: TRACE;

CAMP DOUGLAS   FLURRIES  16   7  67 NW14G22   29.77R WCI   1
6HR MIN TEMP:  15; 6HR MAX TEMP:  19; 6HR PCP: TRACE;

$$

WIZ011>013-019>022-031-037>040-048>050-251300-
NORTHEAST WISCONSIN

CITY           SKY/WX    TMP DP  RH WIND       PRES   REMARKS
ANTIGO         LGT SNOW  15  10  83 NW16G24   29.60R WCI  -1
6HR MIN TEMP:  15; 6HR MAX TEMP:  17;

SHAWANO        LGT SNOW  20  16  85 CALM      29.65R
OCONTO         CLOUDY    19  15  86 NW9       29.61R WCI   7
6HR MIN TEMP:  19; 6HR MAX TEMP:  22;

STURGEON BAY   LGT SNOW  19  17  92 NW15      29.58R FOG     WCI   5
6HR MIN TEMP:  19; 6HR MAX TEMP:  23; 6HR PCP: TRACE;

GREEN BAY      LGT SNOW  20  17  88 NW17      29.63R FOG     WCI   5
6HR MIN TEMP:  20; 6HR MAX TEMP:  22; 6HR PCP:  0.01;

MANITOWOC      LGT SNOW  20  17  88 NW17G25   29.61R FOG     WCI   5
6HR MIN TEMP:  20; 6HR MAX TEMP:  24; 6HR PCP: TRACE;

APPLETON       LGT SNOW  18  14  86 NW12G17   29.63R WCI   5
CLINTONVILLE   LGT SNOW  19  14  79 NW9       29.66R WCI   9
OSHKOSH        LGT SNOW  19  15  84 W16       29.66R FOG     WCI   4
6HR MIN TEMP:  19; 6HR MAX TEMP:  22; 6HR PCP: TRACE;

$$

WIZ032>034-041-042-053>061-251300-
SOUTHWEST WISCONSIN

CITY           SKY/WX    TMP DP  RH WIND       PRES   REMARKS
LA CROSSE      PTCLDY    17   7  64 NW18G30   29.84R WCI   1
6HR MIN TEMP:  18; 6HR MAX TEMP:  22; 6HR PCP: TRACE;

SPARTA         MOCLDY    15   9  75 NW9       29.82R WCI   3
6HR MIN TEMP:  15; 6HR MAX TEMP:  19;

VIROQUA        CLOUDY    15   9  76 NW16      29.77S WCI  -1
6HR MIN TEMP:  15; 6HR MAX TEMP:  18;

BOSCOBEL       MOCLDY    20   8  60 NW14G26   29.83R WCI   7
6HR MIN TEMP:  20; 6HR MAX TEMP:  22; 6HR PCP: TRACE;

PRAIRIE DU CHI CLOUDY    19   9  66 NW14G22   29.85R WCI   5
6HR MIN TEMP:  19; 6HR MAX TEMP:  21;

PLATTEVILLE    PTCLDY    19  15  84 NW5       29.79R WCI  12
6HR MIN TEMP:  19; 6HR MAX TEMP:  23;

$$

WIZ056-057-062-063-064-067-068-251300-
SOUTH CENTRAL WISCONSIN

CITY           SKY/WX    TMP DP  RH WIND       PRES   REMARKS
REEDSBURG      FLURRIES  17  12  82 W10G18    29.76R WCI   5
6HR MIN TEMP:  17; 6HR MAX TEMP:  20;

BARABOO/DELLS  LGT SNOW  17  13  87 NW7       29.74R WCI   7
6HR MIN TEMP:  17; 6HR MAX TEMP:  20;

LONE ROCK      CLOUDY    20  12  71 W15       29.79R WCI   6
6HR MIN TEMP:  19; 6HR MAX TEMP:  23; 6HR PCP:  0.01;

MINERAL POINT  FLURRIES  21  18  86 CALM      29.76R
MADISON        LGT SNOW  18  13  80 NW14G21   29.73R BLWGSNOWWCI   4
6HR MIN TEMP:  18; 6HR MAX TEMP:  22; 6HR PCP:  0.03;

MIDDLETON      CLOUDY    19  16  86 NW8       29.75R WCI   9
6HR MIN TEMP:  19; 6HR MAX TEMP:  25;

WATERTOWN      LGT SNOW  18  16  93 NW15G21   29.69R WCI   4
6HR MIN TEMP:  18; 6HR MAX TEMP:  24;

MONROE         PTCLDY    19  16  86 NW17      29.74R FOG     WCI   4
JANESVILLE     LGT SNOW  21  18  86 NW16      29.73R WCI   7
$$

WIZ051-052-058>065-066-070>072-251300-
SOUTHEAST WISCONSIN

CITY           SKY/WX    TMP DP  RH WIND       PRES   REMARKS
MILWAUKEE      FLURRIES  22  15  75 NW17G25   29.67R WCI   8
6HR MIN TEMP:  22; 6HR MAX TEMP:  28; 6HR PCP:  0.01;

WAUKESHA       LGT SNOW  18  16  93 W17G24    29.67R WCI   2
MILWAUKEE/TIMM LGT SNOW  21  16  79 NW15G21   29.66R WCI   8
RACINE         LGT SNOW  22  16  78 NW15G22   29.68R WCI   9
6HR MIN TEMP:  22; 6HR MAX TEMP:  28; 6HR PCP: TRACE;

KENOSHA        LGT SNOW  21  15  78 NW18G30   29.68R WCI   6
6HR MIN TEMP:  22; 6HR MAX TEMP:  29; 6HR PCP: TRACE;

FOND DU LAC    LGT SNOW  19  13  77 NW17G26   29.67R WCI   4
6HR MIN TEMP:  19; 6HR MAX TEMP:  23; 6HR PCP: TRACE;

SHEBOYGAN      LGT SNOW  20  15  81 NW16      29.63R WCI   6
6HR MIN TEMP:  20; 6HR MAX TEMP:  23; 6HR PCP:  0.01;

WEST BEND      LGT SNOW  19  18  93 NW6       29.64R WCI  11
JUNEAU         LGT SNOW  17  14  87 W6        29.69R WCI   9
6HR MIN TEMP:  17; 6HR MAX TEMP:  22;

$$

LSZ147-162-251300-
LAKE SUPERIOR

STATION/POSITION TIME  TEMP    WIND        PRES    WAVE
                       AIR SEA DIR/SP/G            HT/PER
                 (UTC) (F)     (DEG/KT/KT) (MB)    (FT/S)
DEVILS ISLAND    1200   17     320/ 19/ 23 1009.4R
PORT WING        1130   15     310/ 15/ 21 1009.8S
SAXON HARBOR     1140   18     270/  9/ 23 1007.5R
$$

LMZ867-665-643>646-251300-
LAKE MICHIGAN

STATION/POSITION TIME  TEMP    WIND        PRES    WAVE
                       AIR SEA DIR/SP/G            HT/PER
                 (UTC) (F)     (DEG/KT/KT) (MB)    (FT/S)
CHAMBERS ISLAND  1040   21     300/  2/  3 1000.0R
NORTHPORT PIER   1140   22     310/  2/  3 1000.0R
SISTER BAY       1135   20        CALM       N/A
KEWAUNEE LAKESHO 1154   20     34


USA.gov is the U.S. government's official web portal to all federal, state and local government web resources and services.